TimeMST,TemperatureF,Dew PointF,Humidity,Sea Level PressureIn,VisibilityMPH,Wind Direction,Wind SpeedMPH,Gust SpeedMPH,PrecipitationIn,Events,Conditions,WindDirDegrees,DateUTC
12:51 AM,5.0,1.9,87,30.52,-9999.0,Calm,Calm,-,N/A,,Unknown,0,2014-01-02 07:51:00
1:51 AM,6.1,3.0,87,30.47,-9999.0,ESE,3.5,-,N/A,,Unknown,110,2014-01-02 08:51:00
2:51 AM,7.0,3.0,84,30.46,-9999.0,Calm,Calm,-,N/A,,Unknown,0,2014-01-02 09:51:00
3:51 AM,3.9,1.0,88,30.46,-9999.0,SSE,3.5,-,N/A,,Unknown,160,2014-01-02 10:51:00
4:51 AM,3.9,1.0,88,30.49,-9999.0,Calm,Calm,-,N/A,,Unknown,0,2014-01-02 11:51:00
5:51 AM,1.0,-2.0,87,30.50,-9999.0,SSE,3.5,-,N/A,,Unknown,150,2014-01-02 12:51:00
6:51 AM,3.0,-0.0,87,30.51,-9999.0,Calm,Calm,-,N/A,,Unknown,0,2014-01-02 13:51:00
7:51 AM,-0.0,-4.0,83,30.52,-9999.0,Calm,Calm,-,N/A,,Unknown,0,2014-01-02 14:51:00
8:51 AM,-0.0,-2.9,88,30.54,-9999.0,Calm,Calm,-,N/A,,Unknown,0,2014-01-02 15:51:00
9:51 AM,5.0,1.9,87,30.53,-9999.0,Calm,Calm,-,N/A,,Unknown,0,2014-01-02 16:51:00
10:51 AM,9.0,5.0,84,30.51,-9999.0,Calm,Calm,-,N/A,,Unknown,0,2014-01-02 17:51:00
11:51 AM,14.0,7.0,74,30.47,-9999.0,NNW,3.5,-,N/A,,Unknown,340,2014-01-02 18:51:00
12:51 PM,21.0,10.9,65,30.41,-9999.0,NNW,3.5,-,N/A,,Unknown,330,2014-01-02 19:51:00
1:51 PM,24.1,10.9,57,30.35,-9999.0,Calm,Calm,-,N/A,,Unknown,0,2014-01-02 20:51:00
2:51 PM,26.1,12.0,55,30.30,-9999.0,Calm,Calm,-,N/A,,Unknown,0,2014-01-02 21:51:00
3:51 PM,27.0,12.0,53,30.30,-9999.0,North,5.8,-,N/A,,Unknown,350,2014-01-02 22:51:00
4:51 PM,19.9,12.9,74,30.34,-9999.0,Calm,Calm,-,N/A,,Unknown,0,2014-01-02 23:51:00
5:51 PM,17.1,12.0,81,30.36,-9999.0,South,3.5,-,N/A,,Unknown,170,2014-01-03 00:51:00
6:51 PM,16.0,10.9,81,30.34,-9999.0,ESE,3.5,-,N/A,,Unknown,120,2014-01-03 01:51:00
7:51 PM,15.1,12.0,88,30.34,-9999.0,SE,4.6,-,N/A,,Unknown,130,2014-01-03 02:51:00
8:51 PM,12.9,10.0,88,30.34,-9999.0,Calm,Calm,-,N/A,,Unknown,0,2014-01-03 03:51:00
9:51 PM,15.1,10.9,84,30.29,-9999.0,Calm,Calm,-,N/A,,Unknown,0,2014-01-03 04:51:00
10:51 PM,14.0,10.9,88,30.26,-9999.0,Calm,Calm,-,N/A,,Unknown,0,2014-01-03 05:51:00
11:51 PM,14.0,10.9,88,30.20,-9999.0,Calm,Calm,-,N/A,,Unknown,0,2014-01-03 06:51:00